User: anonymous   Login
Location: Charleston
(38.3500°N, 81.6330°W)
Time: 10:18:12
(UTC-05:00)
Language:

Cosmos 1812 Rocket - Orbit

View from above orbital plane
View from above orbital plane
View from above satellite
View from above satellite

Ground track
Ground track

The orbit data is extracted from the following two-line orbital elements,

1 17296U 87003B   17022.84186416  .00000089  00000-0  79902-5 0  9992
2 17296  82.5309 160.7760 0018585 344.4965  15.5678 14.83165040621578
Epoch (UTC): 22 January 2017 20:12:17
Eccentricity: 0.0018585
inclination: 82.5309°
perigee height: 606 km
apogee height: 632 km
right ascension of ascending node: 160.7760°
argument of perigee: 344.4965°
revolutions per day: 14.83165040
mean anomaly at epoch: 15.5678°
orbit number at epoch: 62157

The dashed part of the orbit path shows where the satellite is in the earth's shadow,  

DLR